Change the Weather History Date:

Saturday, April 21, 2012

  Actual Average Record
Temperature  
Mean Temperature 73 °F 72 °F  
Max Temperature 79 °F 79 °F 86 °F (1967)
Min Temperature 66 °F 66 °F 59 °F (1966)
Degree Days  
Heating Degree Days 0 0  
Month to date heating degree days 0 0  
Since 1 July heating degree days 0 0  
Cooling Degree Days 8 7  
Month to date cooling degree days 149 147  
Year to date cooling degree days 769 728  
Growing Degree Days 22 (Base 50)    
Moisture  
Dew Point 64 °F    
Average Humidity 78    
Maximum Humidity 93    
Minimum Humidity 62    
Precipitation  
Precipitation 0.15 in 0.36 in 7.20 in (1970)
Month to date precipitation 4.05 8.49  
Year to date precipitation 35.24 40.74  
Snow  
Snow 0.00 in - - ()
Month to date snowfall 0.0  
Since 1 July snowfall 0.0  
Snow Depth 0.00 in    
Sea Level Pressure  
Sea Level Pressure 30.03 in    
Wind  
Wind Speed 8 mph (NW)    
Max Wind Speed 17 mph    
Max Gust Speed 22 mph    
Visibility 9 miles    
Events Rain    
T = Trace of Precipitation, MM = Missing Value Source: NWS Daily Summary

Daily Weather History Graph

Daily Weather History Graph

Search for Another Location

Airport or City:

Trip Planner

Search our weather history database for the weather conditions in past years. The results will help you decide how hot, cold, wet, or windy it might be!

Date:

Astronomy

Apr. 21, 2012 Rise Set
Actual Time 5:57 AM HST 6:40 PM HST
Civil Twilight 5:34 AM HST 7:02 PM HST
Nautical Twilight 5:08 AM HST 7:29 PM HST
Astronomical Twilight 4:41 AM HST 7:56 PM HST
Moon 6:07 AM HST (4/21) 7:20 PM HST (4/21)
Length of Visible Light 13h 28m
Length of Day
12h 42m
New Moon, 0% of the Moon is Illuminated
Apr 21
New Moon
Apr 28
First Quarter
May 5
Full
May 12
Last Quarter
May 20
New

Hourly Weather History & Observations

Time (HST) Temp. Dew Point Humidity Pressure Visibility Wind Dir Wind Speed Gust Speed Precip Events Conditions
12:53 AM 68.0 °F 64.0 °F 87% 30.06 in 10.0 mi WNW 5.8 mph - 0.06 in   Overcast
1:30 AM 69.8 °F 62.6 °F 78% 30.05 in 10.0 mi Calm Calm - N/A   Overcast
1:53 AM 66.9 °F 64.0 °F 90% 30.04 in 9.0 mi West 9.2 mph - 0.00 in Rain Light Rain
2:53 AM 66.9 °F 63.0 °F 87% 30.01 in 10.0 mi WNW 3.5 mph - 0.00 in   Mostly Cloudy
3:30 AM 66.2 °F 62.6 °F 88% 30.02 in 2.5 mi NW 6.9 mph - 0.03 in Rain Rain
3:34 AM 66.2 °F 62.6 °F 88% 30.02 in 3.0 mi WNW 6.9 mph - 0.04 in Rain Light Rain
3:53 AM 66.0 °F 64.0 °F 93% 30.00 in 10.0 mi West 6.9 mph - 0.05 in   Overcast
4:32 AM 66.2 °F 62.6 °F 88% 30.01 in 10.0 mi WNW 5.8 mph - 0.00 in   Overcast
4:53 AM 66.9 °F 62.1 °F 84% 30.00 in 10.0 mi West 5.8 mph - 0.00 in   Overcast
5:01 AM 66.2 °F 62.6 °F 88% 30.01 in 10.0 mi WNW 6.9 mph - N/A   Overcast
5:53 AM 66.0 °F 62.1 °F 87% 30.01 in 10.0 mi WSW 5.8 mph - N/A   Overcast
6:03 AM 66.2 °F 62.6 °F 88% 30.02 in 10.0 mi WSW 4.6 mph - N/A   Overcast
6:41 AM 66.2 °F 62.6 °F 88% 30.03 in 10.0 mi West 3.5 mph - 0.00 in   Mostly Cloudy
6:53 AM 69.1 °F 63.0 °F 81% 30.03 in 10.0 mi NW 8.1 mph - 0.00 in   Mostly Cloudy
7:53 AM 69.1 °F 63.0 °F 81% 30.05 in 8.0 mi Variable 5.8 mph - 0.02 in Rain Light Rain
8:53 AM 73.0 °F 64.9 °F 76% 30.06 in 10.0 mi NNW 5.8 mph - 0.00 in   Overcast
9:53 AM 75.9 °F 64.0 °F 67% 30.05 in 10.0 mi NNE 6.9 mph - N/A   Scattered Clouds
10:53 AM 75.9 °F 64.9 °F 69% 30.05 in 10.0 mi North 9.2 mph - N/A   Scattered Clouds
11:53 AM 78.1 °F 64.9 °F 64% 30.04 in 10.0 mi NNE 9.2 mph 19.6 mph N/A   Scattered Clouds
12:53 PM 70.0 °F 66.0 °F 87% 30.03 in 8.0 mi North 6.9 mph - 0.00 in Rain Rain
1:53 PM 75.0 °F 64.9 °F 71% 30.00 in 10.0 mi ENE 13.8 mph - N/A   Mostly Cloudy
2:53 PM 75.9 °F 63.0 °F 64% 30.00 in 10.0 mi NE 17.3 mph 21.9 mph N/A   Mostly Cloudy
3:09 PM 77.0 °F 64.4 °F 65% 30.00 in 10.0 mi NE 13.8 mph - N/A   Partly Cloudy
3:53 PM 77.0 °F 63.0 °F 62% 29.99 in 10.0 mi North 9.2 mph - N/A   Mostly Cloudy
4:53 PM 75.0 °F 64.0 °F 69% 29.99 in 10.0 mi NE 9.2 mph - N/A   Mostly Cloudy
5:07 PM 75.2 °F 64.4 °F 69% 30.00 in 10.0 mi NNE 8.1 mph - N/A   Mostly Cloudy
5:21 PM 75.2 °F 64.4 °F 69% 30.00 in 10.0 mi NNE 8.1 mph - N/A   Mostly Cloudy
5:53 PM 73.0 °F 63.0 °F 71% 30.00 in 10.0 mi NNE 6.9 mph - N/A   Partly Cloudy
6:53 PM 72.0 °F 63.0 °F 73% 30.02 in 10.0 mi NNW 4.6 mph - N/A   Overcast
7:53 PM 71.1 °F 62.1 °F 73% 30.03 in 10.0 mi NW 6.9 mph - N/A   Overcast
8:53 PM 71.1 °F 62.1 °F 73% 30.05 in 10.0 mi NW 6.9 mph - N/A   Mostly Cloudy
9:24 PM 69.8 °F 64.4 °F 83% 30.07 in 1.8 mi Calm Calm - 0.04 in Rain Heavy Rain
9:35 PM 68.0 °F 64.4 °F 88% 30.07 in 3.0 mi Calm Calm - 0.15 in Rain Rain
9:53 PM 68.0 °F 64.9 °F 90% 30.06 in 10.0 mi Calm Calm - 0.16 in   Overcast
10:02 PM 69.8 °F 64.4 °F 83% 30.07 in 10.0 mi West 4.6 mph - N/A   Overcast
10:40 PM 68.0 °F 64.4 °F 88% 30.07 in 10.0 mi Calm Calm - 0.00 in   Mostly Cloudy
10:53 PM 66.9 °F 64.0 °F 90% 30.06 in 10.0 mi WSW 4.6 mph - 0.00 in   Scattered Clouds
11:42 PM 68.0 °F 64.4 °F 88% 30.06 in 10.0 mi West 3.5 mph - N/A   Overcast
11:53 PM 69.1 °F 64.0 °F 84% 30.05 in 10.0 mi Calm Calm - N/A   Mostly Cloudy